This demonstration page uses our WeatherBlox Daily Observations layout. Learn more.

Left ArrowRight Arrow

Hourly Observations for December 25, 2021

Temp ( °F °C ) Dew Point ( °F °C ) Humidity (%) Winds ( mph kmh ) Pressure ( in mb ) Visibility ( mi km ) Precip ( " mm )
12:53 am 00:53 Cloudy 6 -14.4 -1 -18.3 73 73 ENE 12 19 29.80 1009 10 16 0.00 0.00
1:53 am 01:53 Cloudy 6 -14.4 -1 -18.3 73 73 ENE 14 22 29.80 1009 10 16 0.00 0.00
2:33 am 02:33 Cloudy with Light Snow 5 -15 -1 -18.3 76 76 E 15 24 29.93 1013 3 4 0.00 0.00
2:45 am 02:45 Cloudy with Light Snow 5 -15 -1 -18.3 76 76 ENE 13 20 29.93 1013 6 10 0.00 0.00
2:53 am 02:53 Cloudy 5 -15 -1 -18.3 76 76 ENE 13 20 29.82 1010 9 14 0.00 0.00
3:53 am 03:53 Cloudy with Light Snow 5 -15 -1 -18.3 76 76 ENE 12 19 29.85 1011 6 10 0.00 0.00
4:10 am 04:10 Cloudy with Light Snow 5 -15 0 -18 78 78 ENE 10 17 29.97 1015 3 4 0.00 0.00
4:14 am 04:14 Cloudy with Light Snow 5 -15 -1 -18.3 76 76 ENE 9 15 29.97 1015 3 5 0.00 0.00
4:53 am 04:53 Cloudy 3 -16.1 -2 -18.9 79 79 NE 14 22 29.86 1011 8 13 0.00 0.00
5:03 am 05:03 Cloudy 2 -16.7 -3 -19.4 80 80 NE 14 22 30.00 1016 9 14 0.00 0.00
5:19 am 05:19 Cloudy 2 -16.7 -3 -19.4 80 80 NE 14 22 30.00 1016 10 16 0.00 0.00
5:35 am 05:35 Cloudy with Light Snow 2 -16.7 -3 -19.4 80 80 NNE 12 19 30.01 1016 2 3 0.01 0.25
5:50 am 05:50 Cloudy with Light Snow 1 -17 -2 -19 85 85 NE 14 22 30.02 1017 2 3 0.01 0.25
5:53 am 05:53 Cloudy with Light Snow 2 -16.7 -4 -20 76 76 NE 13 20 29.89 1012 2 3 0.01 0.25
6:19 am 06:19 Cloudy with Light Snow 1 -17.2 -4 -20 79 79 NE 13 20 30.03 1017 2 3 0.01 0.25
6:37 am 06:37 Cloudy with Light Snow 1 -17.2 -5 -20.6 75 75 NE 13 20 30.04 1017 2 2 0.01 0.25
6:51 am 06:51 Cloudy with Light Snow 1 -17 -4 -20 78 78 NE 12 19 30.04 1017 3 4 0.01 0.25
6:53 am 06:53 Cloudy with Light Snow 1 -17.2 -5 -20.6 75 75 NE 14 22 29.92 1013 3 5 0.01 0.25
7:53 am 07:53 Cloudy 0 -17.8 -6 -21.1 76 76 NE 13 20 29.95 1014 10 16 0.00 0.00
8:53 am 08:53 Cloudy -1 -18.3 -7 -21.7 75 75 NNE 13 20 29.98 1015 10 16 0.00 0.00
9:53 am 09:53 Cloudy -1 -18.3 -8 -22.2 72 72 NE 12 19 30.02 1017 10 16 0.00 0.00
10:53 am 10:53 Cloudy 0 -17.8 -7 -21.7 72 72 NNE 10 17 30.03 1017 10 16 0.00 0.00
11:53 am 11:53 Cloudy 0 -17.8 -7 -21.7 72 72 NNE 9 15 30.02 1017 10 16 0.00 0.00
12:53 pm 12:53 Cloudy 1 -17.2 -7 -21.7 68 68 NE 9 15 30.01 1016 10 16 0.00 0.00
1:04 pm 13:04 Cloudy 1 -17 -8 -22 65 65 NE 10 17 30.13 1020 10 16 0.00 0.00
1:53 pm 13:53 Cloudy 1 -17.2 -6 -21.1 72 72 NE 8 13 30.02 1017 10 16 0.00 0.00
2:53 pm 14:53 Cloudy 2 -16.7 -6 -21.1 69 69 ENE 10 17 30.04 1017 10 16 0.00 0.00
3:53 pm 15:53 Cloudy 2 -16.7 -5 -20.6 72 72 E 12 19 30.04 1017 10 16 0.00 0.00
4:53 pm 16:53 Cloudy 1 -17.2 -6 -21.1 72 72 E 14 22 30.05 1018 10 16 0.00 0.00
5:53 pm 17:53 Cloudy 1 -17.2 -6 -21.1 72 72 E 14 22 30.04 1017 10 16 0.00 0.00
6:53 pm 18:53 Cloudy 0 -17.8 -7 -21.7 72 72 E 14 22 30.06 1018 10 16 0.00 0.00
7:22 pm 19:22 Cloudy 0 -18 -8 -22 71 71 E 17 28 30.16 1021 10 16 0.00 0.00
7:32 pm 19:32 Cloudy 0 -18 -8 -22 71 71 E 15 24 30.16 1021 10 16 0.00 0.00
7:53 pm 19:53 Cloudy 0 -17.8 -6 -21.1 76 76 E 16 26 30.05 1018 10 16 0.00 0.00
8:53 pm 20:53 Cloudy -1 -18.3 -7 -21.7 75 75 E 18 30 30.03 1017 10 16 0.00 0.00
9:53 pm 21:53 Cloudy -1 -18.3 -7 -21.7 75 75 E 20 31 30.01 1016 10 16 0.00 0.00
10:35 pm 22:35 Cloudy -1 -18.3 -7 -21.7 75 75 E 16 26 30.12 1020 10 16 0.00 0.00
10:53 pm 22:53 Cloudy -1 -18.3 -7 -21.7 75 75 E 20 31 29.98 1015 10 16 0.00 0.00
11:20 pm 23:20 Cloudy 0 -18 -8 -22 71 71 E 21 33 30.08 1019 9 14 0.00 0.00
11:40 pm 23:40 Mostly Cloudy 0 -18 -8 -22 71 71 E 22 35 30.08 1019 10 16 0.00 0.00
11:53 pm 23:53 Mostly Cloudy -1 -18.3 -7 -21.7 75 75 E 21 33 29.96 1015 10 16 0.00 0.00

Powered by AerisWeather